Omaha, IA

1:32 PM CDT on May 26, 2018 (GMT -0500)
Eppley Airfield

Weather History for KOMA - March, 2012

Change the Weather History Date:

Friday, March 30, 2012

  Actual Average Record
Temperature  
Mean Temperature 62 °F 45 °F  
Max Temperature 75 °F 57 °F 89 °F (1968)
Min Temperature 49 °F 33 °F 11 °F (1987)
Degree Days  
Heating Degree Days 3 20  
Month to date heating degree days 296 772  
Since 1 July heating degree days 4477 5570  
Cooling Degree Days 0 0  
Month to date cooling degree days 29 0  
Year to date cooling degree days 29 0  
Growing Degree Days 12 (Base 50)    
Moisture  
Dew Point 53 °F    
Average Humidity 67    
Maximum Humidity 93    
Minimum Humidity 41    
Precipitation  
Precipitation 0.04 in 0.08 in 0.95 in (1998)
Month to date precipitation 1.12 1.90  
Year to date precipitation 3.47 3.47  
Snow  
Snow 0.00 in 0.10 in - ()
Month to date snowfall 0.0 4.1  
Since 1 July snowfall 20.4 25.3  
Snow Depth 0.00 in    
Sea Level Pressure  
Sea Level Pressure 29.75 in    
Wind  
Wind Speed 6 mph (North)    
Max Wind Speed 16 mph    
Max Gust Speed 21 mph    
Visibility 7 miles    
Events Fog , Rain    
T = Trace of Precipitation, MM = Missing Value Source: NWS Daily Summary

Daily Weather History Graph

Daily Weather History Graph

Search for Another Location

Airport or City:

Astronomy

Mar. 30, 2012 Rise Set
Actual Time 7:09 AM CDT 7:47 PM CDT
Civil Twilight 6:41 AM CDT 8:14 PM CDT
Nautical Twilight 6:08 AM CDT 8:47 PM CDT
Astronomical Twilight 5:34 AM CDT 9:21 PM CDT
Moon 12:13 PM CDT (3/30) 2:27 AM CDT (3/30)
Length of Visible Light 13h 33m
Length of Day
12h 37m
Waxing Crescent, 49% of the Moon is Illuminated
Mar 30
Waxing Crescent
Mar 30
First Quarter
Apr 6
Full
Apr 13
Last Quarter
Apr 21
New

Hourly Weather History & Observations

Time (CDT) Temp. Dew Point Humidity Pressure Visibility Wind Dir Wind Speed Gust Speed Precip Events Conditions
12:31 AM 60.8 °F 55.4 °F 82% 29.72 in 10.0 mi WNW 5.8 mph - N/A   Overcast
12:52 AM 57.0 °F 54.0 °F 89% 29.72 in 10.0 mi WNW 6.9 mph - N/A   Scattered Clouds
1:52 AM 55.0 °F 53.1 °F 93% 29.73 in 8.0 mi NW 4.6 mph - N/A   Partly Cloudy
2:30 AM 59.0 °F 57.2 °F 94% 29.74 in 7.0 mi WNW 9.2 mph - N/A   Partly Cloudy
2:52 AM 59.0 °F 57.0 °F 93% 29.73 in 6.0 mi WNW 8.1 mph - N/A   Partly Cloudy
3:38 AM 57.2 °F 55.4 °F 94% 29.74 in 4.0 mi NW 8.1 mph - N/A   Mostly Cloudy
3:52 AM 57.0 °F 55.9 °F 96% 29.73 in 3.0 mi NNE 3.5 mph - N/A   Mostly Cloudy
4:02 AM 57.2 °F 55.4 °F 94% 29.73 in 2.5 mi NNE 3.5 mph - N/A   Scattered Clouds
4:34 AM 55.4 °F 53.6 °F 94% 29.74 in 1.5 mi Calm Calm - N/A   Scattered Clouds
4:52 AM 53.1 °F 52.0 °F 96% 29.73 in 0.8 mi Calm Calm - N/A   Scattered Clouds
5:05 AM 53.6 °F 53.6 °F 100% 29.72 in 0.2 mi NE 4.6 mph - N/A Fog Fog
5:13 AM 53.6 °F 51.8 °F 94% 29.72 in 0.2 mi NNE 4.6 mph - N/A Fog Fog
5:34 AM 53.6 °F 51.8 °F 94% 29.74 in 1.0 mi NW 5.8 mph - N/A   Scattered Clouds
5:38 AM 53.6 °F 51.8 °F 94% 29.74 in 3.0 mi NW 4.6 mph - N/A   Scattered Clouds
5:52 AM 53.1 °F 52.0 °F 96% 29.75 in 6.0 mi WNW 4.6 mph - N/A   Partly Cloudy
6:52 AM 50.0 °F 48.9 °F 96% 29.76 in 5.0 mi WNW 5.8 mph - N/A   Partly Cloudy
7:52 AM 50.0 °F 48.9 °F 96% 29.79 in 5.0 mi NNW 8.1 mph - N/A   Scattered Clouds
8:36 AM 53.6 °F 50.0 °F 88% 29.81 in 5.0 mi Calm Calm - N/A   Mostly Cloudy
8:52 AM 55.0 °F 51.1 °F 86% 29.81 in 5.0 mi Calm Calm - N/A   Scattered Clouds
9:52 AM 59.0 °F 52.0 °F 78% 29.82 in 7.0 mi NW 4.6 mph - N/A   Scattered Clouds
10:52 AM 62.1 °F 54.0 °F 75% 29.82 in 9.0 mi North 8.1 mph - N/A   Mostly Cloudy
11:52 AM 63.0 °F 53.1 °F 70% 29.81 in 10.0 mi North 6.9 mph - N/A   Mostly Cloudy
12:52 PM 64.4 °F 53.6 °F 68% 29.81 in 10.0 mi Calm Calm - N/A   Scattered Clouds
1:52 PM 70.0 °F 53.1 °F 55% 29.79 in 10.0 mi Calm Calm - N/A   Scattered Clouds
2:52 PM 71.1 °F 51.1 °F 49% 29.76 in 10.0 mi ESE 4.6 mph - N/A   Scattered Clouds
3:52 PM 73.0 °F 48.9 °F 42% 29.73 in 10.0 mi SE 10.4 mph - N/A   Scattered Clouds
4:52 PM 73.9 °F 48.0 °F 40% 29.71 in 10.0 mi SSE 6.9 mph - N/A   Scattered Clouds
5:52 PM 72.0 °F 48.9 °F 44% 29.70 in 10.0 mi SSE 10.4 mph - N/A   Scattered Clouds
6:52 PM 66.9 °F 55.9 °F 68% 29.74 in 9.0 mi ENE 4.6 mph - 0.01 in Rain Light Rain
7:52 PM 64.9 °F 57.0 °F 75% 29.75 in 10.0 mi ESE 5.8 mph - 0.03 in   Mostly Cloudy
8:52 PM 64.0 °F 52.0 °F 65% 29.74 in 10.0 mi ESE 11.5 mph - N/A   Scattered Clouds
9:52 PM 62.1 °F 52.0 °F 70% 29.75 in 10.0 mi SE 5.8 mph - N/A   Mostly Cloudy
10:52 PM 62.1 °F 52.0 °F 70% 29.76 in 10.0 mi SSE 5.8 mph - N/A   Mostly Cloudy
11:52 PM 60.1 °F 51.1 °F 72% 29.75 in 10.0 mi SE 11.5 mph - N/A   Partly Cloudy